Location: Coed Ely
(51.5661°N, 3.4150°W)
Time: 02:23:42
(UTC+00:00)

Cosmos-2242 - Pass Details

Date: 28 January 2021
Orbit: 591 x 616 km, 82.5° (Epoch: 28 February)

Event Time Altitude Azimuth Distance (km) Brightness Sun altitude
Rises 18:39:07 0° 349° (NNW) 2,853 6.5 -15.9°
Reaches altitude 10° 18:41:20 10° 349° (N) 1,949 5.6 -16.2°
Maximum altitude 18:45:39 88° 264° (W) 609 3.0 -16.9°
Drops below altitude 10° 18:49:58 10° 172° (S) 1,947 5.6 -17.6°
Sets 18:52:10 0° 172° (S) 2,850 6.5 -17.9°
